Location: Shenandoah County Park
(38.9356°N, 78.4524°W)
Time: 04:43:00
(UTC-04:00)

Transit 2A - Pass Details

Date: 18 June 2024
Orbit: 591 x 960 km, 66.7° (Epoch: 23 July)

Event Time Altitude Azimuth Distance (km) Brightness Sun altitude
Rises 03:59:49 0° 312° (NW) 3,590 9.5 -16.7°
Reaches altitude 10° 04:03:20 10° 293° (WNW) 2,675 8.6 -16.3°
Maximum altitude 04:06:59 16° 257° (WSW) 2,264 8.0 -15.8°
Enters shadow 04:07:03 16° 256° (WSW) 2,264 8.0 -15.8°
